Regional Weather Roundup
Issued by NWS

Home | Current Version | Previous Version | Graphics & Text | Print | Product List | Glossary On
Versions: 1 2 3 4 5 6 7 8 9 10 11 12 13 14 15 16 17 18 19 20 21 22 23 24 25 26 27 28 29 30 31 32 33 34 35 36 37 38 39 40 41 42 43 44 45 46 47 48 49 50
000
ASUS45 KCYS 060110
RWRWY

WYOMING REGIONAL WEATHER ROUNDUP
NATIONAL WEATHER SERVICE CHEYENNE WY
700 PM MDT TUE MAY 05 2015

NOTE:  "FAIR" INDICATES FEW OR NO CLOUDS BELOW 12,000 FEET
WITH NO SIGNIFICANT WEATHER AND/OR OBSTRUCTIONS TO VISIBILITY.

WYZ001-060200-
YELLOWSTONE NATIONAL PARK

CITY           SKY/WX    TMP DP  RH WIND       PRES   REMARKS
LK YELLOWSTONE   N/A     46  36  68 NW12G23   29.90R
W YELLOWSTONE  NOT AVBL

$$
WYZ002>013-054>058-071-098>099-060200-
NORTHERN WYOMING

CITY           SKY/WX    TMP DP  RH WIND       PRES   REMARKS
JACKSON        MOSUNNY   57  37  47 SE6       29.81F
CODY           FAIR      68  36  30 S10       29.68F
GREYBULL       FAIR      75  36  24 W16       29.60F
WORLAND        FAIR      72  39  30 SE17      29.63S
SHERIDAN       FAIR      69  45  41 SE14G24   29.66F
BUFFALO        PTSUNNY   67  44  43 SE16      29.74F
GILLETTE       FAIR      63  47  55 SE25G31   29.75F
HULETT         FAIR      64  46  52 S14G20    29.79F
NEWCASTLE      FAIR      61  45  55 SE21G26   29.82S

$$
WYZ014>020-022>026-101>103-060200-
CENTRAL WYOMING

CITY           SKY/WX    TMP DP  RH WIND       PRES   REMARKS
BIG PINEY      PTSUNNY   53  39  59 NW10      29.84F
PINEDALE       CLOUDY    54  37  54 W16G22    29.84R
DUBOIS         MOCLDY    50  37  62 MISG      29.82R
LANDER         FAIR      62  39  42 W13       29.70S
RIVERTON       FAIR      69  31  24 CALM      29.70F
CASPER         FAIR      62  45  53 SE7       29.72F
DOUGLAS        FAIR      57  47  69 SE26G33   29.79F

$$
WYZ021-027>030-104>119-060200-
SOUTHERN WYOMING

CITY           SKY/WX    TMP DP  RH WIND       PRES   REMARKS
EVANSTON       CLOUDY    47  43  86 N6        29.88F
KEMMERER       MOCLDY    46  43  87 W8        29.88F
FORT BRIDGER   CLOUDY    50  48  93 NW10      29.90S
ROCK SPRINGS   CLOUDY    53  41  63 NW10      29.83R
DIXON          FAIR      58  42  55 E12       29.79R
RAWLINS        FAIR      58  40  51 SE8       29.77S
SARATOGA       FAIR      55  39  54 SE13      29.79F
LARAMIE        FAIR      47  41  80 SE17      29.84F
CHEYENNE       CLOUDY    49  45  86 SE10      29.85F
TORRINGTON     CLOUDY    56  49  77 SE14      29.82F
PINE BLUFFS    DRIZZLE   50  48  93 E10G18    29.85F

$$



USA.gov is the U.S. government's official web portal to all federal, state and local government web resources and services.